YBBNYBNA

Guest
Details From YBBN - Brisbane Intl
To YBNA - Ballina/Byron Gateway
Flight Number -
Tags generated
Created
Modified
Stats Distance 91 nm / 168 km
Max Altitude 11,900 ft / 3,627 m
Waypoints 3
Social Downloads 0
Likes 0
Share VATSIM

Download

Looking for another format? Having issues loading an existing format? Contact us
Advertisement - Login to hide

Notes

Basic altitude profile: - Ascent Rate: 2500ft/min - Ascent Speed: 250kts - Cruise Altitude: 1500ft - Cruise Speed: 420kts - Descent Rate: 1500ft/min - Descent Speed: 250kts Options: - Use NATs: yes - Use PACOTS: no - Use low airways: yes - Use high airways: no

Route

YBBN MOOVI YBNA

ID Type Via Altitude Latitude Longitude Leg Dist Tot Dist Heading (true) Name
O YBBN APT - 0 ft / 0 m -27.37571˚ 153.12771˚ - 0 nm - Brisbane Intl
MOOVI FIX - 11,900 ft / 3,627 m -27.91361˚ 153.29500˚ 33 nm 33 nm 165° / 165° -
O YBNA APT - 0 ft / 0 m -28.83331˚ 153.56121˚ 56 nm 90 nm 166° / 166° Ballina/Byron Gateway

Altitude Profile

Advertisement - Login to hide

YBBN

Details ICAO YBBN (BNE)
Name Brisbane Intl
Region Australia
Timezone Australia/Brisbane (UTC+10.0)
Stats Elevation 12 ft / 4 m (AMSL)
Location -27.375714° 153.127710°
Runways 2
Magnetic Variation 10.987° E

METAR

YBBN 241400Z 19005KT 9999 FEW038 SCT250 BKN320 16/14 Q1022 NOSIG

Decode

TAF

TAF TAF YBBN 241119Z 2412/2518 19006KT 9999 SCT030 FM250200 15012KT 9999 -SHRA BKN030 FM251000 19008KT 9999 -SHRA BKN025 INTER 2506/2518 3000 SHRA BKN010

Decode

Departure Runways

ID Width Length Bearing (true) Bearing (mag) Surface Threshold Offset Overrun Length
01 148 ft / 45 m 11,805 ft / 3,598 m 26.93° 15.94° Asphalt 197 ft / 60 m 0 ft / 0 m
14 98 ft / 30 m 5,787 ft / 1,764 m 145.66° 134.67° Asphalt 197 ft / 60 m 0 ft / 0 m
19 148 ft / 45 m 11,805 ft / 3,598 m 206.92° 195.93° Asphalt 0 ft / 0 m 0 ft / 0 m
32 98 ft / 30 m 5,787 ft / 1,764 m 325.66° 314.67° Asphalt 197 ft / 60 m 0 ft / 0 m

YBNA

Details ICAO YBNA (BNK)
Name Ballina/Byron Gateway
Region Australia
Timezone Australia/Sydney (UTC+10.0)
Stats Elevation 6 ft / 2 m (AMSL)
Location -28.833306° 153.561207°
Runways 1
Magnetic Variation 11.559° E

METAR

YBNA 241400Z AUTO 00000KT 0400 // ////// 12/12 Q1023

Decode

TAF

Not found

Destination Runways

ID Width Length Bearing (true) Bearing (mag) Surface Threshold Offset Overrun Length
06 98 ft / 30 m 6,241 ft / 1,902 m 73.50° 61.94° Asphalt 0 ft / 0 m 0 ft / 0 m
24 98 ft / 30 m 6,241 ft / 1,902 m 253.50° 241.94° Asphalt 0 ft / 0 m 0 ft / 0 m

Popular Alternatives